Activity Log for Dec, 29 2017

Back to Activity Log Search


Incident Time Nature Address
17F157004 00:02:31 33 DISABLED VEH 311XX I 69 SB
17F157006 00:06:35 EMS 14XX GREENE ST
17F157005 00:07:15 46 DOMESTIC 36XX ROBINWOOD DR
17F157007 00:13:36 46,96 28XX ABBOTT ST
17F157012 00:15:45 33 DISABLED VEH 1XX STATE BLVD E & CLINTON ST N
17F157008 00:17:51 25 PD ACCIDENT 43XX LIMA RD & COLISEUM BLVD W
17F157011 00:19:42 25 PD ACCIDENT 311XX I 69 NB
17F157009 00:20:08 26 PI ACCIDENT 309XX I 69 NB
17F157010 00:23:47 44LM 13XX ROCKHILL ST
17F157013 00:39:14 20 PROBLEM UNK 28XX MILLBROOK DR
17F157014 00:45:02 51,35 16XX COLISEUM BLVD N
17F157015 00:48:41 43 DISTURBANCE 7XX DEWALD ST W
17F157016 00:58:38 46,96 10XX BERRY ST E
17F157019 01:03:49 ATL 21XX EDEN ST
17F157017 01:21:11 101 OPEN DOOR 92XX STARLAND CT
17F157018 01:23:03 40A AUDIBLE 9XX THOMAS RD S
17F157020 01:24:20 46 DOMESTIC 54XX LOIS LN
17F157021 01:31:02 15 ASSIST 26XX ANTHONY BLVD S & PONTIAC ST E
17F157022 01:36:17 25 PD ACCIDENT 37XX COLDWATER RD & CLINTON ST N
17F157023 01:48:59 103 UNWANTED 17XX ILLINOIS ST
17F157024 01:51:20 113 SHOTS FIRED 17XX WELLS ST
17F157025 02:01:27 1 MEET 7XX BROADWAY
17F157026 02:07:02 39JO 25XX TAYLOR ST
17F157027 02:11:16 34 TRAFF HAZARD 71XX PROVINCE DR & GARDEN PARK DR
17F157028 02:28:07 46 DOMESTIC 80XX CHARNELL CT
17F157029 02:35:12 48 SUSPICIOUS 20XX HENRIETTA ST
17F157031 02:46:11 48 SUSPICIOUS 29XX OAKWOOD DR
17F157038 02:46:14 40A AUDIBLE 45XX ILLINOIS RD
17F157030 02:46:24 66 MENTALLY ILL 11XX TECUMSEH ST
17F157032 02:50:45 14 WARRANT 41XX ROSEVIEW RD
17F157033 03:08:07 96IP 7XX THIRD ST
17F157034 03:09:22 50,ATTEMPTED 42XX REED ST
17F157035 03:12:57 14 WARRANT 41XX ROSEVIEW RD
17F157036 03:20:36 66 MENTALLY ILL 1XX CONCORD LN W
17F157039 03:24:00 46,96 8XX DREXEL AVE
17F157037 03:24:15 48 SUSPICIOUS 12XX CAPITOL AVE & BOWSER AVE
17F157040 03:30:08 129 56XX GAYWOOD DR
17F157041 03:30:28 129 XX MAIN ST E
17F157042 03:40:50 30 TRAFFIC STOP 21XX WASHINGTON BLVD E & GLASGOW A
17F157043 03:55:36 30 TRAFFIC STOP 26XX WASHINGTON BLVD E
17F157044 04:06:36 43 DISTURBANCE 53XX COLDWATER RD
17F157045 04:16:42 15 ASSIST 53XX MAPLECREST RD & MONTE AVE
17F157046 04:18:18 129 14XX FISHER ST
17F157047 04:18:37 129 14XX FISHER ST
17F157048 04:28:07 51JO 63XX LIMA RD
17F157049 04:50:01 43 DISTURBANCE 32XX DIPLOMAT DR
17F157050 04:50:26 40A AUDIBLE 13XX WASHINGTON CENTER RD E
17F157052 05:15:54 40A AUDIBLE 37XX GOSHEN RD
17F157051 05:16:12 25 PD ACCIDENT 62XX ILLINOIS RD & REWILL DR
17F157053 05:29:43 129 18XX LIMA LN
17F157054 05:29:55 129 18XX LIMA LN
17F157056 05:38:40 40A AUDIBLE 3XX COLISEUM BLVD W
17F157061 05:39:25 25HS HIT SKIP 33XX WARSAW ST
17F157055 05:41:03 40A AUDIBLE 70XX BLUFFTON RD
17F157063 05:42:45 51,35 37XX LOGAN AVE
17F157058 05:47:08 911 HANG UP 2XX COUNTRY FOREST DR
17F157060 05:48:30 36 OCCUPIED VEH 29XX I 469 SB
17F157059 05:48:55 25 PD ACCIDENT 62XX ILLINOIS RD & MAGNAVOX WAY
17F157057 05:49:37 48,35 37XX HIGHLAND DR
17F157062 05:58:28 51JO 19XX BROADWAY
17F157064 06:10:05 101 OPEN DOOR 4XX WILDWOOD AVE E
17F157066 06:11:42 36 OCCUPIED VEH 29XX I 469 NB
17F157065 06:15:29 25 PD ACCIDENT 310XX I 69 SB
17F157069 06:32:11 911 HANG UP 36XX CALHOUN ST S
17F157068 06:34:53 46,96 45XX PLAZA DR
17F157067 06:35:32 51,35 37XX LOGAN AVE
17F157070 06:37:18 25 PD ACCIDENT 311XX I 69 SB
17F157071 06:47:57 129 92XX WHITESTONE CT
17F157072 07:15:17 25 PD ACCIDENT 39XX DUPONT RD E & DIEBOLD RD
17F157073 07:22:53 40A AUDIBLE 9XX PRODUCTION RD
17F157074 07:26:36 48,36 61XX CHATHAM DR
17F157076 07:26:38 25 PD ACCIDENT 50XX LIMA RD & PROGRESS RD
17F157075 07:27:13 51,35 44XX WILMETTE ST
17F157077 07:29:44 25 PD ACCIDENT 308XX I 69 NB
17F157078 07:30:56 63 CONTACT 43XX COOK RD W & CARRINGTON BLVD
17F157079 07:47:00 25 PD ACCIDENT 308XX I 69 NB
17F157081 07:50:00 25 PD ACCIDENT 311XX I 69 SB
17F157080 07:50:07 41,36 35XX HANNA ST S
17F157082 08:11:53 25 PD ACCIDENT 33XX US 30 W & I 69 SB
17F157083 08:17:02 34 TRAFF HAZARD 109XX JEFFERSON BLVD W
17F157084 08:29:41 63 CONTACT 1XX BERRY ST W
17F157085 08:35:10 47 REMOVE ITEMS 1XX FLEMING AVE E
17F157086 08:39:16 24 MISSING PERS 28XX DUPONT RD E
17F157087 08:42:45 25 PD ACCIDENT 114XX JEFFERSON BLVD W & REDDING D
17F157089 08:44:58 EMS 11XX SHERMAN BLVD
17F157088 08:52:48 40P PANIC ALARM 36XX WEISSER PARK AVE
17F157090 08:54:59 33J LOCKED OUT 9XX LINCOLN AVE
17F157091 08:58:48 25 PD ACCIDENT 305XX I 69 NB
17F157093 09:02:01 51 THEFT 27XX POINSETTE DR
17F157092 09:03:35 25HS HIT SKIP 97XX COVINGTON RD & EMERALD LAKE D
17F157094 09:09:04 25 PD ACCIDENT 46XX SPEEDWAY DR
17F157095 09:09:14 36 OCCUPIED VEH 31XX I 469 NB
17F157096 09:21:41 33,34 55XX DECATUR RD & HANNA ST S
17F157097 09:23:52 911 HANG UP 13XX SYLVIA AVE
17F157098 09:25:18 39 STOLEN VEHIC 5XX CONSTANCE AVE
17F157099 09:30:21 26 PI ACCIDENT 26XX OXFORD ST
17F157100 09:42:10 39U UNAUTHORIZE XX MAIN ST E
17F157101 09:42:53 22I JUV INVEST 15XX DUPONT RD W
17F157102 09:47:08 51 THEFT 41XX ILLINOIS RD
17F157104 09:47:26 48,35 18XX BLUFFTON RD
17F157106 09:49:36 25 PD ACCIDENT 30XX CLINTON ST N
17F157103 09:49:43 39R STOLEN RECO 9XX RIDGEWOOD DR
17F157105 09:51:19 37 PARKING VIOL 108XX PATRICIAN PL
17F157107 10:02:37 25 PD ACCIDENT 10XX FAYETTE DR
17F157109 10:05:59 33,34 10XX COLISEUM BLVD E & PARNELL AVE
17F157108 10:06:38 25 PD ACCIDENT 122XX JEFFERSON BLVD W
17F157110 10:11:06 48,36 2XX COLISEUM BLVD W
17F157111 10:16:42 34 TRAFF HAZARD 311XX I 69 NB
17F157113 10:23:27 63 CONTACT 29XX LYNN AVE
17F157112 10:26:29 33 DISABLED VEH 309XX I 69 NB
17F157114 10:28:27 EMS 21XX GOSHEN RD
17F157115 10:29:27 46 DOMESTIC 22XX WESTBROOK DR
17F157132 10:35:10 39 STOLEN VEHIC 4XX PAULDING RD E
17F157117 10:38:15 25 PD ACCIDENT 3XX WASHINGTON CENTER RD E & COLDW
17F157118 10:40:11 38 LOST/STOLEN 11XX ELIZA ST
17F157119 10:41:22 43 DISTURBANCE 22XX LAFAYETTE ST S
17F157121 10:44:25 33,34 39XX OLD MILL RD & RUDISILL BLVD W
17F157123 10:44:39 25 PD ACCIDENT 26XX ST MARYS AVE
17F157124 10:52:05 48 SUSPICIOUS 50XX TRIER RD
17F157125 10:56:49 25,86 40XX WINTER ST & BAXTER ST
17F157126 10:57:20 46 DOMESTIC 20XX THOMPSON AVE
17F157129 10:58:04 43 DISTURBANCE 31XX CALHOUN ST S
17F157127 11:01:04 37 PARKING VIOL 48XX WEISSER PARK AVE
17F157128 11:10:01 63 CONTACT 88XX DUNE CREEK CV
17F157130 11:11:46 40 ALARM 3XX MAIN ST E
17F157131 11:14:30 25 PD ACCIDENT 12XX RECKEWEG RD & ILLINOIS RD
17F157134 11:19:38 40A AUDIBLE 46XX HANNA ST S
17F157135 11:20:25 38 LOST/STOLEN 10XX SHERMAN BLVD
17F157136 11:36:46 50 BURGLARY 9XX RUDISILL BLVD E
17F157137 11:38:50 EMS 7XX WASHINGTON CENTER RD W
17F157138 11:39:02 103 UNWANTED 49XX TRIER RD
17F157139 11:41:34 51,35 23XX GOSHEN RD
17F157140 11:47:39 HARASSMENT 25XX WELLS ST
17F157141 11:57:26 22RN RUNAWAY 11XX NUTTMAN AVE
17F157142 11:57:59 48,36 6XX THIRD ST
17F157143 12:01:25 46,96 13XX GREENE ST
17F157144 12:04:02 25HS HIT SKIP 309XX I 69 NB
17F157145 12:04:04 39U UNAUTHORIZE 32XX CLERMONT AVE
17F157146 12:09:48 33 DISABLED VEH 56XX LIMA RD
17F157147 12:19:05 40A AUDIBLE 21XX PAULDING RD E
17F157150 12:20:07 22RN RUNAWAY 6XX RIVERSIDE AVE
17F157148 12:20:25 25 PD ACCIDENT 62XX ILLINOIS RD & MAGNAVOX WAY
17F157149 12:21:09 37 PARKING VIOL 31XX PLAZA DR
17F157151 12:28:19 65T SUICIDE THR 56XX KELSO LN
17F157152 12:34:18 51,35 3XX COLISEUM BLVD W
17F157153 12:36:19 17 MOTOR CHECK 19XX FOREST DOWNS DR
17F157155 12:37:40 33,34 19XX COLISEUM BLVD S & NEW HAVEN A
17F157157 12:39:32 103 UNWANTED 4XX SPRING ST
17F157156 12:40:41 51 THEFT 44XX PLAZA DR
17F157158 12:42:29 40A AUDIBLE 30XX FOXCHASE RUN
17F157159 12:45:31 63 CONTACT 29XX STATE BLVD E & SANTA ROSA DR
17F157160 12:51:07 30 TRAFFIC STOP 31XX COLISEUM BLVD E & HOBSON RD
17F157162 12:57:23 25 PD ACCIDENT 30XX COLISEUM BLVD W
17F157161 12:58:31 25 PD ACCIDENT 19XX BLUFFTON RD & BROOKLYN AVE
17F157163 13:05:42 51 THEFT 18XX WHEELER ST
17F157164 13:06:18 40A AUDIBLE 82XX ROCKBROOK CT
17F157166 13:08:55 40H HOLDUP ALRM 29XX SCHAPER DR
17F157165 13:09:18 33J LOCKED OUT 19XX BROADWAY
17F157167 13:11:11 33 DISABLED VEH 5XX DUPONT RD W & HICKORY TREE RD
17F157168 13:13:24 46 DOMESTIC 32XX DIPLOMAT DR
17F157169 13:25:39 46,62 22XX BOWSER AVE
17F157177 13:26:09 44LM 16XX REED RD
17F157170 13:29:27 129 81XX SUMMERSET PL
17F157171 13:32:20 25 PD ACCIDENT 71XX ILLINOIS RD & HADLEY RD S
17F157172 13:32:57 83 INFO REPORT XX MAIN ST E
17F157173 13:34:41 48 SUSPICIOUS 12XX FARWOOD AVE
17F157174 13:37:24 51 THEFT 64XX LANDMARK DR
17F157183 13:41:52 25HS HIT SKIP 55XX US 30 W
17F157178 13:44:16 63 CONTACT 26XX TERRACE RD
17F157192 13:46:52 34 TRAFF HAZARD 23XX AIRPORT EXPRESSWAY & BLUFFTON
17F157175 13:50:10 129 3XX WILDWOOD AVE E
17F157176 13:50:23 129 3XX WILDWOOD AVE E
17F157184 13:55:44 63 CONTACT 53XX COLDWATER RD
17F157181 13:56:57 61 RAPE 81XX BRIDGEWAY CIR
17F157179 13:59:33 33,34 46XX REED RD & JANET DR
17F157180 13:59:39 25 PD ACCIDENT 8XX COLISEUM BLVD W
17F157182 14:00:46 46 DOMESTIC 37XX LILLIE ST
17F157205 14:07:39 39 STOLEN VEHIC 41XX HESSEN CASSEL RD
17F157185 14:09:11 25HS HIT SKIP 63XX JEFFERSON BLVD W
17F157187 14:12:33 33,34 4XX TILLMAN RD W & LOWER HUNTINGTO
17F157186 14:12:45 51 THEFT 14XX LAKE FOREST DR
17F157189 14:13:34 41,36 37XX COLDWATER RD & CLINTON ST N
17F157188 14:13:46 33,34 29XX ST JOE CENTER RD
17F157190 14:16:17 33,34 58XX LIMA RD & WASHINGTON CENTER R
17F157191 14:16:52 30 TRAFFIC STOP 27XX CLUB TERR
17F157198 14:17:09 17 MOTOR CHECK 15XX BAYVIEW DR
17F157202 14:19:08 46 DOMESTIC 27XX WASHINGTON CENTER RD W
17F157193 14:19:18 129 19XX CRESCENT AVE
17F157194 14:19:33 129 46XX PARKERDALE DR
17F157195 14:19:44 129 19XX CRESCENT AVE
17F157197 14:19:48 48 SUSPICIOUS 24XX TILLMAN RD E & AUTUMN VIEW DR
17F157196 14:19:50 30 TRAFFIC STOP 47XX COLDWATER RD & COLLINS RD E
17F157201 14:22:20 102,TX THREATS 3XX WASHINGTON BLVD E
17F157199 14:22:28 16,97 26XX TERRACE RD
17F157200 14:23:47 89 BOMB THREAT 61XX GROVELAND DR
17F157203 14:27:19 30 TRAFFIC STOP 8XX HOME AVE & INDIANA AVE
17F157208 14:31:29 46 DOMESTIC 20XX THOMPSON AVE
17F157204 14:31:40 1 MEET 27XX SHADY OAK DR
17F157206 14:32:13 30 TRAFFIC STOP 32XX BROOKLYN AVE & PACKARD AVE W
17F157207 14:40:00 14 WARRANT 71XX BLUFFTON RD
17F157209 14:41:02 33,34 54XX LIMA RD & I 69 NB
17F157210 14:50:30 30 TRAFFIC STOP 48XX JEFFERSON BLVD W & RECKEWEG R
17F157213 14:56:48 911 HANG UP 50XX YORKSHIRE DR
17F157211 14:57:38 30 TRAFFIC STOP 35XX ANTHONY BLVD N & ST JOE RIVER
17F157212 15:00:45 33 DISABLED VEH 74XX BOJRAB DR & LAHMEYER RD
17F157214 15:06:11 34 TRAFF HAZARD 48XX BLUFFTON RD & WINCHESTER RD
17F157215 15:11:39 26PP PINNED 44XX ILLINOIS RD & ILLINOIS RD S
17F157216 15:14:55 65A SUICIDE ATT 30XX BROADWAY
17F157217 15:17:37 23,35 VAND VEH 51XX HOAGLAND AVE
17F157218 15:18:10 30 TRAFFIC STOP 3XX SUPERIOR ST E & LAFAYETTE ST S
17F157219 15:22:15 1 MEET 21XX SHORT ST
17F157220 15:27:54 30 TRAFFIC STOP 3XX PAULDING RD E
17F157221 15:31:54 30 TRAFFIC STOP 37XX HARRIS RD & SUNDOWN LN
17F157224 15:33:12 22RC RECOVERY 10XX FRANKLIN AVE
17F157222 15:33:39 25 PD ACCIDENT 12XX APPLE GLEN BLVD & ILLINOIS RD
17F157223 15:35:55 XX MAIN ST E
17F157225 15:35:57 41 MAN DOWN 10XX OXFORD ST & SMITH ST
17F157227 15:36:24 22RN RUNAWAY 61XX STATE BLVD E
17F157226 15:37:07 51,35 31XX DELLVIEW DR
17F157229 15:45:08 25 PD ACCIDENT 101XX NORTHBROOK DR
17F157228 15:45:29 43 DISTURBANCE 9XX COLISEUM BLVD E
17F157231 15:47:53 66 72 HOUR 79XX JEFFERSON BLVD W
17F157230 15:48:24 30 TRAFFIC STOP 75XX LAFAYETTE ST S & SOUTHTOWN BL
17F157232 15:48:39 103 UNWANTED 15XX GOSHEN AVE
17F157233 15:53:18 25 PD ACCIDENT 78XX COLDWATER RD & RILEY DR
17F157234 15:55:28 33J LOCKED OUT 79XX GRASSLAND CT
17F157235 15:56:56 30 TRAFFIC STOP 70XX LAFAYETTE ST S & JOHN ST
17F157236 16:03:31 63 CONTACT 1XX MAIN ST E & CLINTON ST S
17F157237 16:05:30 38 LOST/STOLEN 40XX WEBSTER ST
17F157238 16:06:05 53 ARMED ROB 38XX CALHOUN ST S & RUDISILL BLVD
17F157239 16:06:20 26 PI ACCIDENT 22XX COLISEUM BLVD N & STATE BLVD
17F157240 16:10:26 25 PD ACCIDENT 17XX HAYDEN ST & ANTHONY BLVD S
17F157242 16:19:37 25HS HIT SKIP 6XX VAN BUREN ST & MAIN ST W
17F157241 16:20:03 30 TRAFFIC STOP 6XX PAULDING RD E & HANNA ST S
17F157244 16:23:05 33,34 37XX LOWER HUNTINGTON RD & ARDMORE
17F157243 16:24:37 30 TRAFFIC STOP 40XX WEISSER PARK AVE & BAXTER ST
17F157247 16:25:28 44LM 47XX ARLINGTON AVE
17F157245 16:26:20 30 TRAFFIC STOP 58XX JONATHON OAKS BLVD & ST JOE C
17F157246 16:30:01 30 TRAFFIC STOP 38XX WINTER ST & RUDISILL BLVD E
17F157250 16:32:04 48,36 24XX MAIN ST W
17F157251 16:33:11 46 DOMESTIC 27XX WASHINGTON CENTER RD W
17F157248 16:35:13 33,34 17XX COLISEUM BLVD W & EXECUTIVE B
17F157252 16:35:35 27 RECKLESS DRI 49XX LAFAYETTE ST S & PETTIT AVE E
17F157253 16:37:27 33,34 17XX DUPONT RD W & LIMA RD
17F157249 16:37:36 30 TRAFFIC STOP 9XX ANTHONY BLVD S & WASHINGTON BL
17F157254 16:48:33 34 TRAFF HAZARD 17XX COLISEUM BLVD W & EXECUTIVE B
17F157256 16:48:56 40A AUDIBLE 54XX KEYSTONE DR
17F157255 16:49:58 38 LOST/STOLEN 34XX EASTWOOD DR
17F157257 16:50:27 40A AUDIBLE 72XX ENGLE RD
17F157258 16:54:20 46,62 XX MAIN ST E
17F157260 16:57:53 40A AUDIBLE 11XX BARR ST S
17F157259 16:59:35 25 PD ACCIDENT 45XX LIMA RD & DUNN ST
17F157261 17:00:11 63 CONTACT 1XX WASHINGTON CENTER RD E & STONE
17F157262 17:09:32 30 TRAFFIC STOP 39XX MAPLECREST RD & BRIAN DR
17F157270 17:09:53 47 REMOVE ITEMS 72XX DENISE DR
17F157267 17:09:58 17 MOTOR CHECK 23XX GAY ST
17F157263 17:10:35 51 THEFT 23XX GAY ST
17F157265 17:13:47 1 MEET 17XX APPLE GLEN BLVD
17F157264 17:14:03 53 ARMED ROB 32XX WASHINGTON BLVD E
17F157275 17:14:15 50,ATTEMPTED 13XX GREEN RD
17F157266 17:15:09 23 VANDALISM XX COUNTRY FOREST DR
17F157268 17:18:19 40A AUDIBLE 6XX WAYNE ST E
17F157269 17:21:38 34 TRAFF HAZARD 27XX STATE BLVD E & BEACON ST
17F157276 17:25:43 50 BURGLARY 9XX CONRAD ST
17F157271 17:28:36 25 PD ACCIDENT 7XX WASHINGTON BLVD W & VAN BUREN
17F157273 17:30:56 34 TRAFF HAZARD 57XX FAIRFIELD AVE & PAULDING RD W
17F157272 17:31:43 23,35 VAND VEH 49XX ASHWOOD DR
17F157274 17:33:55 51 THEFT 10XX WAYNE ST E
17F157277 17:38:17 103 UNWANTED 31XX MAUMEE AVE
17F157278 17:41:12 25 PD ACCIDENT 50XX LIMA RD & PROGRESS RD
17F157281 17:43:50 63 CONTACT 59XX LAKE AVE
17F157279 17:45:14 40H HOLDUP ALRM 46XX COLDWATER RD
17F157280 17:45:55 34 TRAFF HAZARD 79XX PRESTON POINTE DR
17F157282 17:46:53 99 NARCOTICS XX MAIN ST E
17F157283 17:47:23 46,96 35XX WINTER ST
17F157284 17:49:02 34 TRAFF HAZARD 22XX COLISEUM BLVD N & STATE BLVD
17F157285 17:55:19 80 CIVIL INVEST 75XX MILL RUN DR
17F157286 17:55:23 57 STRONG ARM 25XX MAPLE PL
17F157287 17:58:24 33,34 17XX JEFFERSON BLVD W
17F157288 18:00:01 27 RECKLESS DRI 62XX ST JOE CENTER RD & MAPLECREST
17F157289 18:00:13 25,86 18XX JEFFERSON BLVD W
17F157290 18:05:26 35 PARKED VEHIC 38XX FERGUSON RD W
17F157291 18:08:55 34 TRAFF HAZARD 33XX PAULDING RD E
17F157295 18:10:04 36 OCCUPIED VEH 57XX FAIRFIELD AVE & PAULDING RD W
17F157292 18:10:14 37 PARKING VIOL 5XX RUDISILL BLVD E
17F157293 18:13:21 63 CONTACT 23XX MAIN ST W
17F157294 18:15:36 80 CIVIL INVEST XX MAIN ST E
17F157297 18:16:21 25HS HIT SKIP 53XX COLDWATER RD
17F157296 18:18:49 25 PD ACCIDENT 67XX NORTHRIVER RD & MAYSVILLE RD
17F157299 18:24:48 25 PD ACCIDENT 7XX MAIN ST W & VAN BUREN ST
17F157298 18:25:09 48 SUSPICIOUS 34XX ANTHONY BLVD S
17F157300 18:26:11 43 DISTURBANCE 33XX ALPINE AVE
17F157301 18:29:18 96JO 16XX CASS ST
17F157303 18:36:49 36 OCCUPIED VEH 309XX I 69 NB
17F157305 18:40:15 EMS 3XX WAYNE ST E
17F157304 18:40:55 101 OPEN DOOR 55XX RIVER RUN TRL
17F157307 18:41:04 22N CHILD NEGLE 101XX LIMA RD
17F157306 18:42:30 33,34 66XX ILLINOIS RD & I 69 NB
17F157309 18:43:24 46 DOMESTIC 15XX CYPRESS LN
17F157308 18:44:16 129 57XX GATE TREE LN
17F157311 18:46:43 63 CONTACT 21XX POINT WEST DR
17F157310 18:47:05 25 PD ACCIDENT 2XX RUDISILL BLVD E & CLINTON ST S
17F157312 18:56:40 113 SHOTS FIRED 79XX SPRUCE CREEK PL
17F157313 18:57:25 129 45XX WINDING WAY DR
17F157314 18:58:26 35 PARKED VEHIC 21XX TAYLOR ST & PAUL ST
17F157316 19:00:21 25HS HIT SKIP 43XX HARRIS RD & COLISEUM BLVD W
17F157315 19:01:37 102 THREATS 66XX ST JOE RD
17F157317 19:04:56 129 42XX OAKHURST DR
17F157319 19:07:17 46 DOMESTIC 87XX DUNMORE LN
17F157318 19:08:11 96JO 9XX LAFAYETTE ST S
17F157320 19:13:30 80 CIVIL INVEST 13XX BURGESS ST
17F157322 19:14:24 25 PD ACCIDENT 311XX I 69 NB
17F157321 19:15:58 33 DISABLED VEH 116XX COLDWATER RD
17F157323 19:19:33 40A AUDIBLE 1XX BERRY ST W
17F157324 19:26:24 33,34 8XX JACKSON ST & WAYNE ST W
17F157325 19:32:04 40A AUDIBLE 3XX WILLIAMS ST W
17F157328 19:33:15 63 CONTACT 15XX DUPONT RD W
17F157326 19:40:24 33,34 17XX PAULDING RD E & ANTHONY BLVD
17F157327 19:41:20 65T SUICIDE THR 21XX BROADWAY
17F157330 19:54:54 48 SUSPICIOUS 61XX WILLOW GREEN DR
17F157329 19:55:50 40I INTRUSION 42XX PLAZA DR
17F157331 20:00:50 48,36 50XX DECATUR RD
17F157332 20:00:57 25 PD ACCIDENT 31XX GOSHEN RD & I 69 309 NB ON RA
17F157333 20:05:43 48,36 60XX ILLINOIS RD
17F157334 20:08:55 40A AUDIBLE 30XX CENTRAL DR
17F157335 20:09:14 102 THREATS 40XX LYNFIELD DR
17F157337 20:12:41 37 PARKING VIOL 15XX TILLMAN RD E
17F157336 20:13:26 40 ALARM 64XX STATE BLVD E
17F157338 20:20:08 101 OPEN DOOR 9XX FRANCIS ST
17F157339 20:22:22 40A AUDIBLE 83XX OKLAHOMA TRL
17F157340 20:24:01 51JO 75XX SOUTHTOWN XING
17F157341 20:25:16 102 THREATS 22XX HARRISON ST S
17F157342 20:28:58 25 PD ACCIDENT 23XX COLISEUM BLVD E & CRESCENT AV
17F157343 20:33:45 33J LOCKED OUT 42XX COLDWATER RD
17F157344 20:41:30 36 OCCUPIED VEH 51XX HESSEN CASSEL RD & ASHCROFT D
17F157345 20:45:20 63 CONTACT 76XX BEATY AVE
17F157346 20:46:16 25 PD ACCIDENT 302XX I 69 NB
17F157347 20:49:01 48,36 7XX UNION ST
17F157348 20:55:43 25 PD ACCIDENT 80XX STELLHORN RD & GOEGLEIN RD
17F157349 20:57:28 44LM 25XX TERRACE RD
17F157350 20:58:15 43 DISTURBANCE 51XX CALHOUN ST S
17F157351 21:04:14 103 UNWANTED 13XX MAIN ST W
17F157352 21:07:28 46 DOMESTIC 83XX BRIDGEWAY CIR
17F157353 21:10:02 25 PD ACCIDENT 2XX ELIZABETH ST & CLINTON ST N
17F157355 21:10:36 66 MENTALLY ILL 19XX FOX POINT TRL
17F157354 21:13:22 33,34 14XX COLISEUM BLVD N & LAKE AVE
17F157357 21:27:29 43 DISTURBANCE 4XX TABER ST E
17F157359 21:27:37 33,34 104XX TONKEL RD & SR 1
17F157356 21:27:53 30 TRAFFIC STOP 1XX CREIGHTON AVE W & HARRISON ST
17F157358 21:28:18 25 PD ACCIDENT 3XX WASHINGTON BLVD E & LAFAYETTE
17F157366 21:30:56 14 WARRANT 7XX BROADWAY
17F157360 21:38:48 30 TRAFFIC STOP 3XX COOK RD E & COLDWATER RD
17F157361 21:45:53 30 TRAFFIC STOP 84XX COLDWATER RD & AUDUBON TRL
17F157362 21:46:45 58 SHOOTING 22XX RANDALLIA DR
17F157363 21:47:19 25 PD ACCIDENT 47XX CLINTON ST N & PARNELL AVE
17F157365 21:49:15 50 BURGLARY 15XX KENTUCKY AVE
17F157364 21:51:55 129 37XX RUDISILL BLVD E
17F157369 21:56:41 48 SUSPICIOUS 17XX HIGH ST
17F157371 22:00:37 46 DOMESTIC 16XX ROSEMONT DR
17F157370 22:01:25 33 DISABLED VEH 58XX WINCHESTER RD & SHAMROCK RD
17F157368 22:01:54 62 PARTY ARMED 1XX CREIGHTON AVE E & CLINTON ST S
17F157367 22:02:38 33,34 23XX BOLTON DR & STATE BLVD E
17F157373 22:05:31 66 MENTALLY ILL 79XX DECATUR RD
17F157372 22:06:37 25HS HIT SKIP 1XX STATE BLVD W & WESTBROOK DR
17F157375 22:07:50 36 OCCUPIED VEH 312XX I 69 NB
17F157374 22:12:28 30 TRAFFIC STOP 15XX ST JOE CENTER RD & CLINTON ST
17F157388 22:15:11 22RC RECOVERY 43XX MIRADA DR
17F157376 22:16:23 30 TRAFFIC STOP 12XX MAPLECREST RD & LAKE AVE
17F157377 22:19:14 40A AUDIBLE 25XX BROADWAY
17F157378 22:19:54 43 DISTURBANCE 13XX FAYETTE DR
17F157379 22:25:25 33,34 49XX LAFAYETTE ST S & DECATUR RD
17F157382 22:25:38 40 ALARM 3XX COLISEUM BLVD E
17F157380 22:26:05 40A AUDIBLE 62XX LIMA RD
17F157381 22:27:09 48,36 13XX ROCKHILL ST
17F157384 22:27:55 103 UNWANTED 33XX DUPONT RD E
17F157383 22:32:34 30 TRAFFIC STOP 58XX ST JOE RD & ST JOE CENTER RD
17F157385 22:33:09 11C CAGE CAR 14XX APPLE GLEN BLVD
17F157387 22:33:42 15 ASSIST 61XX BLUE SPRUCE CT
17F157386 22:35:06 911 HANG UP 61XX CHATHAM DR
17F157389 23:02:37 48,36 26XX WAYNEWOOD DR
17F157390 23:05:38 25 PD ACCIDENT 305XX I 69 NB
17F157391 23:07:19 46 DOMESTIC 10XX COLISEUM BLVD N
17F157393 23:08:34 911 HANG UP 13XX FAYETTE DR
17F157395 23:09:35 44LM 9XX COOK RD E
17F157392 23:09:48 25HS HIT SKIP 44XX EXECUTIVE BLVD & DIRECTORS RO
17F157394 23:18:03 25,86 41XX MAPLECREST RD & GLENVIEW DR
17F157396 23:18:53 25 PD ACCIDENT 86XX BLUFFTON RD & AIRPORT EXPRESS
17F157397 23:22:23 30 TRAFFIC STOP 12XX SPY RUN AVE & BALTES AVE
17F157398 23:23:58 22RN RUNAWAY 37XX HARRISON ST S
17F157399 23:27:43 30 TRAFFIC STOP 37XX WALDEN RUN & TRIER RD
17F157400 23:28:38 30 TRAFFIC STOP 44XX CLINTON ST N & CALIFORNIA RD
17F157402 23:30:44 62 PARTY ARMED 41XX THREE OAKS DR
17F157405 23:36:34 36 OCCUPIED VEH 77XX ANTHONY BLVD S & LAFAYETTE ST
17F157403 23:36:46 30 TRAFFIC STOP 8XX WASHINGTON CENTER RD E & DARTM
17F157404 23:37:14 911 HANG UP 29XX SCHELE AVE
17F157406 23:43:31 40 ALARM 14XX ST JOSEPH BLVD
17F157407 23:46:21 30 TRAFFIC STOP 4XX ESSEX LN E & CAMDEN DR
17F157410 23:49:22 1 MEET 19XX HILLSIDE AVE
17F157408 23:49:53 30 TRAFFIC STOP 2XX COLISEUM BLVD W & SPEEDWAY DR
17F157409 23:50:12 40A AUDIBLE 10XX LIBERTY ST